Temperature
15 15 15 14 14 14 15 16 16 17 17 18 19 19 19 18 17 15 14 15 15 15 14 14 14 13 13 12 12 12 11 11 11 10 10 9 9 9 8 8 7 7 6 6
13 13 14 14 14 15 15 15 16 16 17 18 19 18 18 17 17 15 15 15 16 16 15 15 14 14 13 13 12 12 11 11 10 10 9 9 9 8 8 7 7 6 6 5
12 13 12 12 14 14 15 15 16 16 17 18 17 17 17 17 16 16 15 16 16 16 16 16 15 15 14 13 12 12 11 10 10 9 9 9 8 8 7 7 6 6 5 5
12 11 10 14 16 16 15 15 16 16 17 17 17 17 16 16 16 16 15 15 16 16 16 16 15 14 14 13 12 11 11 10 9 9 9 8 8 7 7 6 6 5 5 4
10 11 12 13 13 14 14 15 16 16 16 16 15 14 15 15 15 15 15 15 16 16 16 15 15 14 13 12 12 11 10 10 9 9 8 8 7 7 6 6 5 5 4 4
9 10 11 14 14 14 14 14 16 16 15 15 14 14 16 16 15 15 15 15 15 15 15 15 14 14 13 12 11 11 10 9 9 8 8 7 7 6 6 5 5 4 4 3
9 11 13 15 13 13 13 15 16 15 15 14 14 15 15 15 15 15 15 15 15 14 14 14 14 13 12 12 11 10 9 8 8 7 7 6 6 5 5 5 4 4 3 3
10 10 12 12 11 14 16 15 14 14 14 14 14 14 14 14 14 14 14 14 14 14 13 13 12 12 11 11 10 9 8 8 7 6 6 5 5 5 4 4 3 3 2 2
11 13 14 12 13 14 14 14 14 14 14 14 13 13 13 13 13 13 13 13 13 13 12 12 11 11 10 10 9 8 7 7 6 6 5 5 5 4 4 3 3 2 2 1
11 12 12 11 12 13 13 14 15 15 15 14 14 14 13 13 13 13 13 12 12 12 11 11 10 10 9 9 8 7 7 6 6 5 5 4 4 4 3 3 2 2 1 1
11 11 11 11 11 12 13 13 14 14 14 14 14 14 13 13 13 12 12 11 11 11 11 10 9 9 8 8 7 7 6 6 5 5 4 4 3 3 3 2 2 1 1 -0
11 11 11 13 12 13 13 13 13 13 13 13 14 14 13 13 12 12 11 11 10 10 9 9 8 8 7 7 6 6 6 5 4 4 3 3 3 2 2 1 1 0 -0 -1
11 11 11 12 12 12 12 13 13 13 13 13 13 13 13 12 12 11 11 10 10 9 9 8 7 7 6 6 6 5 5 4 4 3 3 2 2 1 1 0 -0 -0 -1 -1
9 10 9 10 11 12 12 12 12 12 12 12 12 12 12 11 11 10 10 9 9 8 7 7 6 6 6 5 5 4 4 3 3 2 2 1 1 0 -0 -1 -1 -1 -2 -2
8 9 10 10 10 11 11 11 11 11 11 11 11 11 11 10 10 9 9 8 8 7 6 6 6 5 5 4 4 3 3 3 2 2 1 1 -0 -1 -1 -2 -2 -2 -3 -3
8 8 9 9 9 10 10 10 10 10 10 10 10 10 9 9 9 8 8 7 7 6 6 5 5 4 4 3 3 2 2 2 1 1 0 -0 -1 -2 -2 -2 -3 -3 -4 -4
7 6 7 7 8 8 9 9 9 9 9 9 9 9 8 8 7 7 6 6 6 5 5 4 4 3 3 3 2 2 1 1 0 -0 -1 -1 -2 -2 -3 -3 -4 -4 -4 -5
8 9 9 9 9 8 8 8 8 8 8 8 8 7 7 7 7 6 5 5 4 4 4 3 3 3 2 2 1 1 0 -0 -1 -1 -2 -2 -3 -3 -4 -4 -5 -5 -5 -6
7 8 8 8 8 8 8 7 7 7 7 7 6 6 6 6 5 5 4 4 4 3 3 2 2 1 1 1 0 -0 -1 -1 -2 -2 -3 -3 -4 -4 -5 -5 -6 -6 -7 -7
6 6 7 7 7 7 7 6 6 6 5 5 5 5 4 4 4 4 3 3 3 2 2 1 1 0 0 -0 -1 -1 -2 -2 -3 -3 -4 -4 -5 -5 -6 -6 -7 -7 -7 -8
4 5 5 5 5 5 5 5 5 4 4 4 4 4 4 3 3 2 2 2 1 1 1 0 -0 -0 -1 -1 -2 -2 -3 -3 -4 -4 -5 -5 -6 -6 -7 -7 -8 -8 -8 -8
3 3 3 3 4 3 3 3 3 3 3 3 3 3 2 2 2 1 1 1 0 -0 -0 -1 -1 -1 -2 -3 -3 -3 -4 -4 -5 -5 -6 -6 -7 -7 -8 -8 -8 -9 -9 -9
1 1 1 2 2 2 1 1 1 2 1 1 1 1 1 1 0 0 -0 -0 -1 -1 -1 -2 -2 -2 -3 -4 -4 -4 -5 -5 -6 -6 -7 -7 -8 -8 -8 -9 -9 -9 -10 -10
-1 -1 -0 0 0 0 -0 -0 -0 -0 0 0 -0 -0 -0 -1 -1 -1 -1 -2 -2 -2 -2 -3 -3 -3 -4 -4 -5 -5 -5 -6 -6 -7 -8 -8 -8 -9 -9 -9 -10 -10 -10 -10
-2 -2 -2 -1 -1 -1 -2 -2 -1 -1 -1 -1 -2 -2 -2 -2 -2 -2 -3 -3 -3 -3 -3 -4 -4 -4 -5 -5 -5 -6 -6 -7 -7 -8 -8 -9 -9 -9 -9 -10 -10 -10 -11 -11
-3 -3 -3 -3 -3 -3 -3 -2 -2 -2 -2 -2 -3 -3 -3 -3 -3 -3 -4 -4 -4 -4 -5 -5 -5 -5 -6 -6 -6 -7 -7 -8 -8 -8 -9 -9 -9 -10 -10 -10 -11 -11 -11 -11
-4 -4 -4 -4 -4 -4 -3 -3 -3 -3 -3 -3 -4 -4 -4 -4 -4 -4 -5 -5 -5 -5 -5 -6 -6 -6 -7 -7 -7 -8 -8 -8 -9 -9 -9 -10 -10 -10 -10 -11 -11 -11 -11 -11
Wind_Speed
20 13 14 20 24 27 29 30 25 25 25 23 20 18 15 12 9 7 7 8 10 12 12 13 14 15 15 16 16 16 16 16 16 15 14 14 13 13 12 11 11 10 10 9
19 15 15 16 22 27 31 30 31 28 26 21 20 19 18 17 13 12 11 10 10 12 13 14 16 16 16 16 16 16 17 16 15 14 14 14 13 13 12 11 10 10 10 9
17 16 13 21 26 25 25 27 25 29 28 20 18 18 19 18 15 14 13 11 10 12 13 14 15 16 17 16 16 16 16 15 15 15 14 14 13 13 12 12 11 10 10 9
9 12 15 16 16 24 25 25 26 24 20 20 21 19 17 16 15 14 12 10 10 10 11 11 12 13 14 14 15 16 16 15 15 15 14 14 13 13 12 11 11 10 10 9
8 13 14 10 9 17 22 24 25 26 24 20 13 10 14 14 14 14 11 9 8 8 8 9 11 13 14 14 15 15 16 16 15 15 15 14 14 13 12 10 10 9 9 9
10 12 15 13 13 12 13 17 18 22 23 20 12 11 12 9 9 9 7 5 5 6 7 9 10 12 14 14 15 15 15 14 14 14 14 14 14 12 10 10 9 8 8 9
15 14 14 7 10 15 14 11 9 17 19 18 17 15 6 5 5 5 5 5 6 7 7 8 10 13 13 13 13 12 12 12 13 13 13 13 11 10 9 8 7 7 8 8
15 15 13 9 14 16 10 4 6 10 14 15 16 11 6 6 6 6 6 6 7 7 7 8 10 12 12 11 10 10 11 11 11 11 10 9 10 9 8 8 7 7 7 7
13 14 4 13 13 11 4 6 7 7 9 11 11 10 9 7 7 7 7 7 7 8 9 8 8 9 10 9 10 11 11 11 10 10 9 9 9 9 7 7 6 6 6 7
10 12 10 11 10 8 6 6 6 6 7 10 10 10 10 8 8 8 8 8 8 9 9 8 8 8 9 10 11 11 11 10 9 9 8 8 7 7 7 7 6 6 6 7
13 8 7 11 13 12 9 6 5 4 6 9 10 9 10 9 9 9 8 7 8 8 9 9 9 8 9 10 11 11 10 8 8 7 7 7 6 6 7 7 7 7 7 7
14 11 10 12 12 12 11 11 10 8 6 6 8 9 9 8 8 9 9 9 8 8 9 9 9 9 9 9 10 10 8 7 6 6 5 5 4 3 5 7 9 11 12 11
10 8 10 7 8 10 12 11 10 10 9 8 8 8 9 8 8 9 9 9 10 9 9 10 9 9 8 8 9 8 8 7 5 5 5 4 4 4 5 6 9 12 14 15
7 5 6 8 7 7 8 7 6 6 6 6 7 8 9 8 9 10 10 9 9 10 9 9 9 8 8 8 7 7 7 6 5 4 4 4 5 5 5 6 7 7 9 13
10 9 8 6 5 4 4 6 8 7 7 7 8 9 10 11 11 10 9 10 10 10 9 9 8 7 7 7 7 6 5 4 4 4 4 4 4 5 5 7 8 8 8 9
8 6 6 7 7 7 7 8 9 9 9 9 9 9 9 10 10 10 10 10 11 10 9 8 7 7 7 6 6 5 4 5 4 3 4 4 4 5 6 7 8 9 9 9
9 8 8 9 9 9 9 9 9 9 9 10 10 11 12 12 11 10 9 8 8 8 7 7 7 6 6 6 5 3 3 4 4 4 4 5 5 6 7 8 8 9 10 11
11 11 10 10 10 10 8 7 8 9 9 10 12 12 12 12 11 10 9 9 8 6 5 5 6 6 5 4 3 3 3 3 4 4 5 5 6 7 8 9 10 11 11 11
8 7 7 7 8 9 8 8 8 9 10 11 12 11 10 9 10 10 9 9 8 6 4 4 6 5 4 4 3 3 3 4 4 5 5 7 8 8 9 9 10 11 11 11
6 6 7 7 8 8 9 9 10 10 10 11 12 12 10 9 9 9 8 6 3 3 4 5 4 3 3 3 3 3 4 5 5 6 6 7 8 9 9 10 11 11 12 12
9 10 11 11 10 10 10 11 11 11 11 11 11 11 10 9 8 7 7 5 3 4 4 4 2 2 2 2 3 3 4 5 6 7 7 8 9 10 10 11 11 11 12 12
10 12 13 13 13 12 10 11 12 12 12 11 11 11 10 9 7 6 4 3 3 3 2 1 1 2 2 3 4 4 5 6 7 7 8 9 9 10 11 11 12 12 12 12
11 13 13 14 14 14 13 12 12 11 11 11 10 9 8 7 5 5 4 2 2 1 0 1 2 3 4 4 4 5 6 7 7 8 9 9 10 10 11 12 12 12 12 12
13 14 14 14 15 16 14 12 12 11 11 10 9 8 7 6 4 4 3 3 2 1 1 1 3 4 5 4 4 5 6 7 8 8 9 10 10 11 11 12 12 12 13 15
14 15 15 14 14 12 12 12 12 11 11 9 9 8 6 4 3 3 2 2 1 2 1 2 4 5 4 4 5 6 7 8 9 9 10 10 11 11 12 12 12 13 13 14
14 12 12 12 10 9 8 8 8 7 7 7 6 6 5 4 4 3 2 2 2 3 3 3 4 5 5 5 6 7 8 9 10 10 11 11 12 13 12 13 15 14 14 14
14 12 11 11 10 8 8 8 8 7 6 6 5 4 4 3 3 3 2 2 3 3 3 4 4 5 6 7 7 8 9 9 10 10 11 11 12 12 13 14 13 13 13 14
Wind_Direction
230 224 196 206 209 210 217 225 235 242 243 243 245 253 260 266 266 257 240 218 208 205 201 198 197 196 195 193 188 184 185 187 187 183 180 176 175 175 176 178 181 182 186 193
223 217 212 219 219 216 220 228 237 246 251 249 251 254 257 258 256 253 249 232 218 210 205 202 201 198 194 193 189 186 188 188 183 179 177 176 176 175 176 179 181 185 192 198
220 212 218 233 225 220 223 226 232 239 246 248 246 245 248 251 251 249 249 238 222 213 209 206 202 198 195 192 186 187 190 187 182 179 178 178 175 176 180 183 185 192 199 205
208 194 222 238 221 220 227 231 230 238 246 245 245 247 250 249 248 248 243 236 226 216 210 206 198 194 191 186 185 187 188 186 182 180 180 178 178 182 184 186 191 198 204 212
201 213 235 236 210 208 216 233 231 234 240 244 245 252 252 242 237 240 241 235 224 211 202 191 187 182 178 180 183 186 189 187 184 181 180 179 183 186 185 188 195 202 209 216
206 215 227 229 195 191 202 240 232 225 232 233 214 232 244 222 213 223 226 213 197 182 175 174 173 171 173 178 182 188 189 185 181 181 182 183 185 184 185 191 197 202 214 223
213 223 237 217 161 160 195 233 207 210 220 217 212 225 225 168 176 185 180 173 163 159 161 164 163 165 171 175 185 184 177 175 176 180 182 183 181 182 184 187 195 208 221 231
210 220 227 169 161 187 211 184 182 196 206 208 213 217 195 174 167 157 151 150 150 147 144 148 158 163 167 173 169 163 164 167 171 174 174 176 177 180 184 188 200 216 230 241
208 221 217 173 193 206 192 189 193 193 198 195 196 200 194 188 178 166 158 151 148 143 137 142 156 162 160 156 152 154 158 163 165 167 171 175 178 180 185 193 207 222 233 245
218 225 217 207 213 216 209 206 197 192 182 179 185 185 182 177 170 164 159 155 150 147 144 144 149 151 147 146 151 154 157 159 161 166 171 176 179 184 191 201 213 224 236 247
225 228 220 224 222 221 217 214 194 184 188 187 179 178 178 175 172 166 158 155 155 153 148 144 144 142 142 149 152 153 154 157 162 169 173 179 188 199 207 215 218 225 238 246
224 217 212 224 226 220 213 214 205 191 187 191 187 178 171 169 165 161 158 154 152 149 145 144 144 143 147 153 155 153 155 161 166 171 176 184 195 219 227 234 238 243 249 254
238 227 226 233 223 213 216 216 206 197 192 186 181 174 165 157 156 154 154 157 157 153 148 146 145 146 150 154 157 159 162 164 167 175 183 193 204 221 245 247 241 247 250 254
237 219 232 228 221 213 210 205 190 180 180 172 163 156 152 146 147 154 158 156 148 143 145 146 146 148 152 155 157 160 162 166 174 185 194 205 217 229 242 255 265 265 256 257
228 230 229 223 210 196 179 163 158 164 160 153 152 153 154 152 154 153 146 142 139 140 145 148 148 150 153 157 159 162 167 175 183 193 204 216 227 238 247 254 262 271 275 270
212 217 208 202 199 190 176 173 174 174 166 158 153 153 150 143 137 135 139 145 146 150 154 154 153 152 154 156 159 167 179 181 196 209 220 229 236 245 252 258 264 267 270 274
198 209 209 207 201 194 192 187 179 170 161 157 151 142 136 131 129 133 138 143 141 142 149 153 152 150 156 162 167 177 186 195 207 224 232 238 245 251 256 260 264 268 271 273
220 218 208 201 192 183 178 168 161 155 153 148 139 138 141 143 143 142 139 135 128 127 138 146 145 150 159 168 175 188 201 213 225 236 244 248 254 257 260 263 267 270 275 275
210 199 189 183 173 164 159 154 148 140 135 137 137 137 135 133 132 134 136 139 143 146 147 142 145 153 164 178 190 207 218 231 242 249 254 259 263 264 265 266 269 272 276 277
160 151 145 138 131 133 135 133 130 127 130 132 129 126 124 125 128 130 130 127 127 131 138 146 154 164 175 193 215 230 236 244 252 259 263 264 266 269 269 271 272 274 275 275
131 128 124 119 112 109 117 125 125 124 123 126 127 127 125 122 124 126 127 123 110 118 137 150 162 179 201 228 244 249 251 256 261 265 267 269 271 272 273 273 274 274 275 276
116 116 114 112 108 102 100 105 111 114 113 111 111 115 117 116 114 106 97 115 125 128 135 164 190 221 247 263 261 260 261 264 267 269 270 271 272 274 274 275 276 276 276 276
105 107 107 108 106 102 95 94 98 103 105 107 111 114 114 113 114 119 112 108 119 123 153 227 254 263 275 278 269 266 268 269 270 271 272 273 273 274 276 277 276 276 277 276
99 100 101 102 102 99 95 91 90 91 92 90 89 93 101 102 89 78 94 105 96 44 307 271 277 283 290 282 273 271 272 273 274 275 275 275 275 275 275 276 277 277 277 277
95 96 96 97 94 95 98 98 93 90 88 86 81 74 69 73 88 85 77 75 55 7 336 306 301 300 295 282 277 276 276 275 276 278 277 278 278 278 277 277 277 278 278 277
88 86 84 83 88 93 96 95 93 90 91 89 79 70 65 64 66 60 50 30 5 341 325 309 302 300 290 285 282 282 281 283 283 282 280 280 279 279 279 278 279 278 278 277
82 82 82 79 74 75 80 83 86 84 81 85 83 69 58 52 46 33 16 356 340 328 316 308 302 297 293 291 289 287 286 285 283 282 282 281 280 279 279 279 279 279 278 278
Height
1402 1404 1409 1413 1417 1421 1422 1417 1417 1412 1414 1414 1415 1416 1416 1418 1419 1420 1420 1420 1421 1422 1424 1427 1430 1433 1437 1441 1445 1449 1453 1458 1462 1466 1470 1474 1478 1481 1484 1487 1489 1490 1492 1493
1405 1407 1409 1410 1409 1410 1412 1411 1409 1409 1407 1406 1410 1412 1413 1414 1415 1415 1415 1416 1416 1418 1420 1422 1424 1427 1431 1435 1439 1443 1448 1452 1457 1461 1465 1469 1473 1476 1479 1481 1483 1485 1486 1487
1401 1404 1410 1407 1399 1401 1402 1401 1403 1402 1399 1402 1405 1406 1407 1408 1409 1409 1409 1410 1411 1413 1415 1417 1419 1422 1425 1429 1433 1438 1442 1446 1451 1455 1459 1463 1467 1471 1473 1476 1478 1480 1481 1482
1398 1405 1410 1387 1384 1388 1391 1392 1394 1393 1393 1395 1397 1399 1400 1402 1403 1403 1404 1405 1406 1408 1410 1412 1415 1417 1421 1424 1428 1432 1436 1441 1445 1449 1454 1458 1462 1465 1468 1470 1472 1474 1475 1476
1398 1396 1387 1382 1383 1382 1385 1384 1383 1386 1387 1390 1393 1396 1394 1394 1396 1397 1398 1400 1401 1403 1405 1408 1410 1412 1416 1419 1423 1427 1430 1434 1439 1443 1448 1452 1455 1459 1462 1465 1467 1468 1469 1470
1392 1389 1382 1368 1372 1376 1382 1379 1373 1377 1379 1383 1390 1391 1386 1387 1389 1391 1393 1395 1397 1399 1401 1403 1406 1408 1411 1414 1418 1421 1425 1429 1434 1438 1442 1446 1450 1454 1457 1459 1461 1463 1463 1464
1383 1379 1366 1362 1368 1374 1380 1368 1364 1367 1371 1376 1380 1379 1381 1383 1385 1387 1388 1390 1392 1395 1397 1400 1402 1405 1408 1411 1414 1418 1421 1425 1430 1434 1438 1442 1445 1449 1452 1454 1456 1457 1457 1457
1374 1372 1365 1361 1366 1364 1358 1358 1360 1362 1365 1368 1371 1374 1377 1379 1381 1383 1385 1387 1389 1392 1394 1397 1399 1402 1405 1408 1411 1415 1418 1422 1425 1429 1433 1437 1440 1443 1446 1448 1449 1450 1450 1450
1356 1353 1350 1353 1354 1353 1355 1356 1358 1359 1361 1364 1367 1370 1373 1376 1378 1380 1383 1385 1387 1390 1392 1395 1398 1401 1403 1406 1409 1412 1415 1418 1422 1426 1429 1433 1436 1438 1441 1442 1443 1444 1444 1443
1351 1348 1348 1349 1349 1351 1352 1354 1355 1357 1359 1361 1363 1366 1370 1373 1375 1378 1380 1383 1385 1388 1391 1393 1396 1399 1402 1404 1407 1410 1413 1416 1419 1423 1426 1429 1431 1434 1435 1436 1437 1437 1437 1436
1344 1343 1345 1345 1345 1347 1349 1351 1353 1355 1357 1359 1361 1364 1367 1370 1373 1375 1378 1381 1384 1386 1389 1392 1395 1397 1400 1403 1406 1408 1411 1414 1417 1420 1422 1425 1427 1429 1430 1431 1431 1431 1430 1429
1335 1337 1340 1339 1341 1344 1346 1347 1350 1353 1355 1357 1359 1362 1365 1367 1370 1373 1376 1379 1382 1385 1388 1391 1393 1396 1399 1402 1405 1407 1409 1412 1414 1416 1419 1420 1422 1423 1423 1424 1424 1424 1423 1422
1332 1333 1334 1335 1337 1339 1341 1343 1346 1349 1351 1354 1357 1359 1362 1365 1367 1371 1374 1377 1380 1383 1386 1389 1392 1395 1398 1400 1403 1405 1407 1409 1411 1413 1414 1416 1416 1417 1417 1417 1417 1416 1415 1413
1328 1330 1331 1331 1333 1335 1338 1340 1342 1345 1348 1351 1353 1356 1359 1362 1365 1368 1372 1375 1378 1382 1385 1388 1391 1393 1396 1398 1401 1403 1405 1407 1408 1409 1410 1411 1411 1411 1411 1410 1409 1407 1407 1405
1323 1325 1326 1327 1329 1331 1333 1336 1338 1341 1344 1347 1350 1353 1356 1359 1363 1366 1370 1373 1377 1380 1383 1386 1389 1392 1394 1396 1398 1400 1402 1403 1404 1405 1405 1405 1405 1405 1404 1403 1401 1399 1398 1396
1317 1320 1321 1323 1325 1327 1329 1332 1334 1337 1340 1343 1346 1350 1353 1357 1361 1364 1368 1372 1375 1378 1381 1384 1387 1390 1392 1394 1395 1397 1398 1399 1399 1400 1400 1400 1399 1398 1397 1396 1394 1392 1389 1388
1313 1315 1317 1319 1320 1323 1326 1328 1331 1334 1337 1341 1344 1348 1351 1355 1359 1363 1367 1370 1374 1377 1380 1383 1385 1387 1389 1391 1392 1393 1393 1394 1394 1394 1394 1393 1393 1391 1390 1388 1386 1384 1381 1379
1307 1309 1311 1314 1316 1319 1322 1325 1329 1332 1335 1338 1342 1346 1350 1354 1357 1361 1365 1369 1372 1375 1378 1381 1383 1384 1386 1387 1388 1388 1389 1389 1389 1388 1388 1387 1386 1384 1382 1380 1378 1375 1372 1370
1302 1305 1308 1311 1313 1316 1319 1323 1326 1330 1334 1337 1341 1345 1349 1353 1357 1361 1364 1367 1370 1373 1376 1378 1380 1381 1382 1383 1384 1384 1384 1383 1383 1382 1381 1380 1378 1376 1374 1372 1369 1367 1364 1361
1298 1301 1305 1308 1311 1315 1318 1321 1325 1329 1333 1337 1341 1345 1349 1353 1357 1360 1363 1366 1369 1371 1373 1375 1376 1377 1378 1379 1379 1379 1378 1378 1377 1375 1374 1372 1370 1368 1366 1364 1361 1358 1355 1352
1296 1299 1302 1306 1310 1314 1317 1321 1325 1329 1333 1338 1342 1345 1349 1353 1356 1359 1362 1365 1367 1369 1370 1371 1372 1373 1373 1374 1373 1373 1372 1371 1370 1368 1366 1364 1362 1360 1357 1355 1352 1349 1346 1343
1295 1298 1302 1306 1309 1314 1318 1322 1326 1330 1334 1338 1343 1346 1349 1353 1356 1358 1361 1363 1365 1366 1367 1368 1368 1369 1368 1368 1368 1367 1366 1365 1363 1361 1359 1356 1354 1351 1348 1346 1343 1340 1337 1334
1296 1299 1303 1307 1311 1315 1320 1324 1328 1332 1336 1340 1343 1347 1350 1352 1355 1357 1359 1361 1362 1363 1363 1364 1364 1364 1363 1363 1362 1360 1359 1357 1355 1353 1351 1348 1345 1342 1339 1336 1333 1330 1327 1324
1299 1303 1306 1310 1314 1318 1323 1327 1331 1335 1338 1341 1344 1347 1350 1352 1354 1356 1357 1358 1359 1360 1360 1360 1359 1359 1358 1357 1355 1353 1352 1350 1347 1345 1342 1339 1336 1333 1330 1327 1324 1320 1317 1314
1304 1307 1311 1315 1319 1323 1327 1331 1334 1338 1340 1343 1346 1348 1350 1352 1354 1355 1355 1356 1356 1356 1356 1355 1354 1353 1352 1350 1348 1346 1344 1342 1339 1337 1334 1331 1327 1324 1321 1317 1314 1310 1307 1304
1310 1314 1318 1321 1324 1328 1331 1334 1337 1340 1342 1345 1347 1349 1350 1352 1352 1353 1353 1353 1353 1352 1351 1350 1349 1347 1346 1344 1342 1339 1337 1334 1331 1328 1325 1322 1318 1315 1311 1307 1304 1300 1297 1293
1318 1321 1324 1327 1330 1333 1336 1338 1340 1342 1344 1346 1347 1349 1350 1351 1351 1351 1351 1350 1349 1348 1347 1345 1343 1341 1339 1337 1334 1332 1329 1326 1322 1319 1316 1312 1308 1305 1301 1297 1294 1290 1286 1282